Погода в Фаридабаде

Индия     28°23′16″N   77°19′04″E
темп.,
°C
ветер,
м/с
пор.,
м/с
влажн.,
%
обл.,
%
осадки,
мм/ч
давл.,
гПа
погр.,
м
27 января, чт
чт2723:30+12з23623 0.0 101779
02:30+11зсз25662 0.0 1017138
05:30+10зсз24700 0.0 1016130
08:30+11зсз24630 0.0 1018192
11:30+16зсз35420 0.0 10191044
14:30+19сз45330 0.0 10161746
17:30+17сз46380 0.0 1016828
20:30+14зсз25460 0.0 1017147
28 января, пт
пт2823:30+13сз27510 0.0 1017207
02:30+11сз27510 0.0 1017209
05:30+10зсз37440 0.0 1017216
08:30+10зсз36420 0.0 1018228
11:30+16зсз47300 0.0 1018768
14:30+19зсз57250 0.0 10161409
17:30+17сз35310 0.0 1015395
20:30+14зсз22390 0.0 101751
29 января, сб
сб2923:30+13зсз22440 0.0 101744
02:30+12сз23420 0.0 101678
05:30+11зсз23430 0.0 101690
08:30+12зсз24410 0.0 1018166
11:30+18зсз35270 0.0 1018642
14:30+21зсз46250 0.0 10151118
17:30+19зсз36320 0.0 1014317
20:30+16зсз25420 0.0 1015140
30 января, вс
вс3023:30+14зсз37410 0.0 1015157
02:30+13зсз38420 0.0 1013207
05:30+12зсз412430 0.0 1012312
08:30+13зсз413410 0.0 1012344
11:30+19зсз59280 0.0 1011642
14:30+22зсз69250 0.0 10091038
17:30+20зсз48340 0.0 1008678
20:30+17з39380 0.0 1010237
31 января, пн
пн3123:30+15зсз37360 0.0 1010166
02:30+14сз23390 0.0 101059
05:30+13ссв11420 0.0 101010
08:30+14юв11420 0.0 101152
11:30+20ю22300 0.0 1012526
14:30+23ююз22250 0.0 10091055
17:30+20ю23350 0.0 1008102
20:30+17вюв11410 0.0 101011